sat.trackr.live / text

‹ back to catalog

GOOD ANCESTOR KILAKILA

NORAD 64528 · 2025-135A

PAYLOAD ACTIVE UNKNOWN

§ Identity

Operator
Country
SLB
Launch date
2025-06-23
Launch site
AFWTR
Launch vehicle
Mass (kg)
RCS (m²)

External: N2YO · Heavens-Above · Gunter

§ Orbital elements

Epoch: 2026-05-25T01:27:27.884160Z

Period
94.51 min
Inclination
97.4604°
Eccentricity
0.0003577
Mean motion
15.23640679 rev/d
Perigee alt
492.4 km
Apogee alt
497.3 km
Semi-major
6,873.0 km
B*
3.1834e-4
RAAN
260.4083°
Arg perigee
259.7111°
Mean anomaly
100.3723°
Rev number
5,136

§ Raw data

GOOD ANCESTOR KILAKILA1 64528U 25135A   26145.06073940  .00007560  00000+0  31834-3 0  99972 64528  97.4604 260.4083 0003577 259.7111 100.3723 15.23640679 51362

JSON: /api/v1/satellites/64528 · /tle

For live sub-satellite position, see the globe view (requires WebGL).

§ Visibility from observer

Set your observer location to see the next 7 days of passes ≥ 10°. The values pass through the URL so the page stays shareable.

No JS? Fill the form by hand. The geolocation button needs JavaScript.